Time,TemperatureF,DewpointF,PressureIn,WindDirection,WindDirectionDegrees,WindSpeedMPH,WindSpeedGustMPH,Humidity,HourlyPrecipIn,Conditions,Clouds,dailyrainin,SoftwareType,DateUTC
2013-02-01 00:12:00,23.0,20.0,29.87,ENE,60,0.0,9.0,87,0.00,,,0.00,weatherlink.com 1.10,2013-02-01 05:12:00,
2013-02-01 00:28:00,22.7,19.0,29.86,SE,127,1.0,4.0,87,0.00,,,0.00,weatherlink.com 1.10,2013-02-01 05:28:00,
2013-02-01 00:42:00,22.7,20.0,29.86,SE,124,3.0,8.0,88,0.00,,,0.00,weatherlink.com 1.10,2013-02-01 05:42:00,
2013-02-01 00:58:00,22.5,20.0,29.86,ENE,63,1.0,6.0,88,0.00,,,0.00,weatherlink.com 1.10,2013-02-01 05:58:00,
2013-02-01 01:28:00,22.5,18.0,29.86,ESE,116,3.0,11.0,83,0.00,,,0.00,weatherlink.com 1.10,2013-02-01 06:28:00,
2013-02-01 01:43:00,22.2,17.0,29.87,ESE,113,2.0,11.0,80,0.00,,,0.00,weatherlink.com 1.10,2013-02-01 06:43:00,
2013-02-01 01:58:00,22.0,17.0,29.87,East,81,0.0,6.0,80,0.00,,,0.00,weatherlink.com 1.10,2013-02-01 06:58:00,
2013-02-01 02:13:00,21.9,17.0,29.88,East,99,3.0,7.0,80,0.00,,,0.00,weatherlink.com 1.10,2013-02-01 07:13:00,
2013-02-01 02:28:00,21.9,16.0,29.88,ESE,107,1.0,8.0,78,0.00,,,0.00,weatherlink.com 1.10,2013-02-01 07:28:00,
2013-02-01 02:43:00,21.7,18.0,29.88,SSE,163,5.0,9.0,84,0.00,,,0.00,weatherlink.com 1.10,2013-02-01 07:43:00,
2013-02-01 02:58:00,20.4,17.0,29.89,East,93,2.0,12.0,88,0.00,,,0.00,weatherlink.com 1.10,2013-02-01 07:58:00,
2013-02-01 03:13:00,19.6,16.0,29.90,SSE,151,4.0,18.0,86,0.00,,,0.00,weatherlink.com 1.10,2013-02-01 08:13:00,
2013-02-01 03:28:00,19.3,16.0,29.91,SE,125,0.0,11.0,85,0.00,,,0.00,weatherlink.com 1.10,2013-02-01 08:28:00,
2013-02-01 03:43:00,19.1,16.0,29.92,ESE,106,1.0,11.0,86,0.00,,,0.00,weatherlink.com 1.10,2013-02-01 08:43:00,
2013-02-01 03:58:00,19.3,15.0,29.92,SE,124,5.0,8.0,82,0.00,,,0.00,weatherlink.com 1.10,2013-02-01 08:58:00,
2013-02-01 04:13:00,19.2,14.0,29.93,ESE,115,5.0,8.0,81,0.00,,,0.00,weatherlink.com 1.10,2013-02-01 09:13:00,
2013-02-01 04:28:00,18.7,15.0,29.94,SE,136,5.0,11.0,84,0.00,,,0.00,weatherlink.com 1.10,2013-02-01 09:28:00,
2013-02-01 04:43:00,17.9,14.0,29.96,ESE,111,8.0,16.0,85,0.00,,,0.00,weatherlink.com 1.10,2013-02-01 09:43:00,
2013-02-01 04:58:00,17.3,14.0,29.98,ESE,118,13.0,15.0,86,0.00,,,0.00,weatherlink.com 1.10,2013-02-01 09:58:00,
2013-02-01 05:13:00,17.1,13.0,29.99,ESE,123,7.0,13.0,84,0.00,,,0.00,weatherlink.com 1.10,2013-02-01 10:13:00,
2013-02-01 05:29:00,16.9,12.0,30.00,ESE,105,11.0,13.0,82,0.00,,,0.00,weatherlink.com 1.10,2013-02-01 10:29:00,
2013-02-01 05:44:00,16.6,11.0,30.02,ESE,117,7.0,11.0,78,0.00,,,0.00,weatherlink.com 1.10,2013-02-01 10:44:00,
2013-02-01 05:58:00,16.3,9.0,30.03,East,87,8.0,11.0,74,0.00,,,0.00,weatherlink.com 1.10,2013-02-01 10:58:00,
2013-02-01 06:14:00,16.0,9.0,30.05,ENE,64,4.0,15.0,73,0.00,,,0.00,weatherlink.com 1.10,2013-02-01 11:14:00,
2013-02-01 06:29:00,15.8,9.0,30.06,ESE,111,7.0,15.0,74,0.00,,,0.00,weatherlink.com 1.10,2013-02-01 11:29:00,
2013-02-01 06:44:00,15.6,9.0,30.07,South,174,4.0,9.0,76,0.00,,,0.00,weatherlink.com 1.10,2013-02-01 11:44:00,
2013-02-01 06:59:00,15.5,9.0,30.08,ESE,122,5.0,12.0,76,0.00,,,0.00,weatherlink.com 1.10,2013-02-01 11:59:00,
2013-02-01 07:14:00,15.3,8.0,30.09,SE,127,3.0,17.0,74,0.00,,,0.00,weatherlink.com 1.10,2013-02-01 12:14:00,
2013-02-01 07:29:00,15.1,9.0,30.10,East,91,8.0,12.0,77,0.00,,,0.00,weatherlink.com 1.10,2013-02-01 12:29:00,
2013-02-01 07:44:00,14.7,10.0,30.11,SE,131,2.0,9.0,82,0.00,,,0.00,weatherlink.com 1.10,2013-02-01 12:44:00,
2013-02-01 07:59:00,14.9,9.0,30.12,ESE,118,1.0,13.0,78,0.00,,,0.00,weatherlink.com 1.10,2013-02-01 12:59:00,
2013-02-01 08:14:00,14.7,8.0,30.13,ENE,63,7.0,18.0,76,0.00,,,0.00,weatherlink.com 1.10,2013-02-01 13:14:00,
2013-02-01 08:29:00,14.6,9.0,30.14,East,83,2.0,13.0,77,0.00,,,0.00,weatherlink.com 1.10,2013-02-01 13:29:00,
2013-02-01 08:44:00,14.7,10.0,30.15,SE,127,4.0,16.0,80,0.00,,,0.00,weatherlink.com 1.10,2013-02-01 13:44:00,
2013-02-01 08:59:00,14.8,9.0,30.16,ENE,60,3.0,13.0,78,0.00,,,0.00,weatherlink.com 1.10,2013-02-01 13:59:00,
2013-02-01 09:14:00,15.1,8.0,30.17,SSE,159,2.0,22.0,73,0.00,,,0.00,weatherlink.com 1.10,2013-02-01 14:14:00,
2013-02-01 09:29:00,15.1,9.0,30.18,ESE,106,2.0,16.0,75,0.00,,,0.00,weatherlink.com 1.10,2013-02-01 14:29:00,
2013-02-01 09:44:00,15.1,9.0,30.19,SE,130,6.0,13.0,77,0.00,,,0.00,weatherlink.com 1.10,2013-02-01 14:44:00,
2013-02-01 10:00:00,15.6,9.0,30.19,ESE,112,8.0,12.0,76,0.00,,,0.00,weatherlink.com 1.10,2013-02-01 15:00:00,
2013-02-01 10:14:00,15.5,9.0,30.20,SE,136,3.0,18.0,74,0.00,,,0.00,weatherlink.com 1.10,2013-02-01 15:14:00,
2013-02-01 10:29:00,16.0,9.0,30.21,ESE,117,3.0,14.0,74,0.00,,,0.00,weatherlink.com 1.10,2013-02-01 15:29:00,
2013-02-01 10:44:00,15.6,10.0,30.21,SE,124,12.0,19.0,77,0.00,,,0.00,weatherlink.com 1.10,2013-02-01 15:44:00,
2013-02-01 10:59:00,16.6,10.0,30.22,ESE,105,10.0,18.0,75,0.00,,,0.00,weatherlink.com 1.10,2013-02-01 15:59:00,
2013-02-01 11:14:00,16.0,10.0,30.23,SE,129,6.0,16.0,76,0.00,,,0.00,weatherlink.com 1.10,2013-02-01 16:14:00,
2013-02-01 11:29:00,16.2,9.0,30.23,SSE,150,5.0,16.0,72,0.00,,,0.00,weatherlink.com 1.10,2013-02-01 16:29:00,
2013-02-01 11:44:00,17.3,10.0,30.23,ESE,122,4.0,15.0,74,0.00,,,0.00,weatherlink.com 1.10,2013-02-01 16:44:00,
2013-02-01 11:59:00,17.1,10.0,30.24,East,98,18.0,18.0,72,0.00,,,0.00,weatherlink.com 1.10,2013-02-01 16:59:00,
2013-02-01 12:15:00,16.4,9.0,30.24,ESE,112,11.0,16.0,72,0.00,,,0.00,weatherlink.com 1.10,2013-02-01 17:15:00,
2013-02-01 12:29:00,17.0,8.0,30.24,ESE,122,7.0,15.0,69,0.00,,,0.00,weatherlink.com 1.10,2013-02-01 17:29:00,
2013-02-01 12:45:00,17.7,8.0,30.25,SSE,151,6.0,18.0,66,0.00,,,0.00,weatherlink.com 1.10,2013-02-01 17:45:00,
2013-02-01 13:00:00,17.0,8.0,30.25,NE,34,8.0,17.0,69,0.00,,,0.00,weatherlink.com 1.10,2013-02-01 18:00:00,
2013-02-01 13:15:00,16.3,8.0,30.26,SE,138,3.0,15.0,70,0.00,,,0.00,weatherlink.com 1.10,2013-02-01 18:15:00,
2013-02-01 13:30:00,16.2,8.0,30.26,SE,129,0.0,18.0,70,0.00,,,0.00,weatherlink.com 1.10,2013-02-01 18:30:00,
2013-02-01 13:45:00,17.5,9.0,30.26,SE,139,3.0,16.0,69,0.00,,,0.00,weatherlink.com 1.10,2013-02-01 18:45:00,
2013-02-01 14:00:00,16.8,7.0,30.27,East,94,5.0,18.0,65,0.00,,,0.00,weatherlink.com 1.10,2013-02-01 19:00:00,
2013-02-01 14:15:00,16.4,8.0,30.27,SSE,154,6.0,20.0,68,0.00,,,0.00,weatherlink.com 1.10,2013-02-01 19:15:00,
2013-02-01 14:30:00,17.3,8.0,30.28,ESE,112,5.0,12.0,68,0.00,,,0.00,weatherlink.com 1.10,2013-02-01 19:30:00,
2013-02-01 14:45:00,17.1,8.0,30.28,ESE,112,3.0,14.0,67,0.00,,,0.00,weatherlink.com 1.10,2013-02-01 19:45:00,
2013-02-01 15:00:00,17.0,8.0,30.28,ENE,58,8.0,18.0,67,0.00,,,0.00,weatherlink.com 1.10,2013-02-01 20:00:00,
2013-02-01 15:15:00,17.8,7.0,30.29,East,85,14.0,14.0,63,0.00,,,0.00,weatherlink.com 1.10,2013-02-01 20:15:00,
2013-02-01 15:30:00,17.9,7.0,30.29,ESE,118,9.0,14.0,63,0.00,,,0.00,weatherlink.com 1.10,2013-02-01 20:30:00,
2013-02-01 15:45:00,18.0,7.0,30.30,ESE,113,4.0,13.0,63,0.00,,,0.00,weatherlink.com 1.10,2013-02-01 20:45:00,
2013-02-01 16:00:00,17.9,6.0,30.31,SE,136,1.0,13.0,61,0.00,,,0.00,weatherlink.com 1.10,2013-02-01 21:00:00,
2013-02-01 16:15:00,16.6,6.0,30.31,East,97,3.0,14.0,63,0.00,,,0.00,weatherlink.com 1.10,2013-02-01 21:15:00,
2013-02-01 16:30:00,15.5,5.0,30.32,ESE,115,4.0,13.0,64,0.00,,,0.00,weatherlink.com 1.10,2013-02-01 21:30:00,
2013-02-01 16:45:00,15.6,5.0,30.32,ESE,113,3.0,8.0,64,0.00,,,0.00,weatherlink.com 1.10,2013-02-01 21:45:00,
2013-02-01 17:00:00,15.9,6.0,30.32,East,99,0.0,13.0,65,0.00,,,0.00,weatherlink.com 1.10,2013-02-01 22:00:00,
2013-02-01 17:15:00,15.8,6.0,30.33,East,99,2.0,14.0,66,0.00,,,0.00,weatherlink.com 1.10,2013-02-01 22:15:00,
2013-02-01 17:30:00,15.4,6.0,30.34,SE,134,3.0,15.0,66,0.00,,,0.00,weatherlink.com 1.10,2013-02-01 22:30:00,
2013-02-01 17:45:00,15.1,6.0,30.34,SE,127,11.0,13.0,66,0.00,,,0.00,weatherlink.com 1.10,2013-02-01 22:45:00,
2013-02-01 18:00:00,14.7,5.0,30.35,SE,143,4.0,13.0,64,0.00,,,0.00,weatherlink.com 1.10,2013-02-01 23:00:00,
2013-02-01 18:15:00,14.3,4.0,30.35,ESE,118,2.0,11.0,65,0.00,,,0.00,weatherlink.com 1.10,2013-02-01 23:15:00,
2013-02-01 18:30:00,14.1,4.0,30.36,SE,132,4.0,12.0,63,0.00,,,0.00,weatherlink.com 1.10,2013-02-01 23:30:00,
2013-02-01 18:46:00,13.9,3.0,30.37,ESE,110,8.0,12.0,63,0.00,,,0.00,weatherlink.com 1.10,2013-02-01 23:46:00,
2013-02-01 19:00:00,14.0,4.0,30.37,ENE,75,4.0,16.0,65,0.00,,,0.00,weatherlink.com 1.10,2013-02-02 00:00:00,
2013-02-01 19:16:00,14.0,5.0,30.38,ESE,117,2.0,13.0,66,0.00,,,0.00,weatherlink.com 1.10,2013-02-02 00:16:00,
2013-02-01 19:30:00,13.8,5.0,30.38,ESE,118,6.0,11.0,67,0.00,,,0.00,weatherlink.com 1.10,2013-02-02 00:30:00,
2013-02-01 19:45:00,13.7,5.0,30.38,ESE,121,2.0,10.0,67,0.00,,,0.00,weatherlink.com 1.10,2013-02-02 00:45:00,
2013-02-01 20:00:00,13.7,5.0,30.38,SE,131,1.0,9.0,67,0.00,,,0.00,weatherlink.com 1.10,2013-02-02 01:00:00,
2013-02-01 20:15:00,13.3,5.0,30.39,East,99,4.0,8.0,68,0.00,,,0.00,weatherlink.com 1.10,2013-02-02 01:15:00,
2013-02-01 20:30:00,13.0,4.0,30.39,SSE,154,5.0,9.0,67,0.00,,,0.00,weatherlink.com 1.10,2013-02-02 01:30:00,
2013-02-01 20:45:00,12.8,4.0,30.39,SE,134,2.0,11.0,68,0.00,,,0.00,weatherlink.com 1.10,2013-02-02 01:45:00,
2013-02-01 21:00:00,12.7,4.0,30.39,SE,145,3.0,10.0,69,0.00,,,0.00,weatherlink.com 1.10,2013-02-02 02:00:00,
2013-02-01 21:15:00,12.3,4.0,30.39,ESE,113,2.0,11.0,69,0.00,,,0.00,weatherlink.com 1.10,2013-02-02 02:15:00,
2013-02-01 21:30:00,12.1,4.0,30.40,SSE,148,1.0,8.0,69,0.00,,,0.00,weatherlink.com 1.10,2013-02-02 02:30:00,
2013-02-01 21:45:00,11.9,4.0,30.40,ESE,117,5.0,8.0,70,0.00,,,0.00,weatherlink.com 1.10,2013-02-02 02:45:00,
2013-02-01 22:01:00,12.0,4.0,30.40,SE,124,3.0,7.0,70,0.00,,,0.00,weatherlink.com 1.10,2013-02-02 03:01:00,
2013-02-01 22:16:00,11.8,4.0,30.40,ESE,108,3.0,11.0,71,0.00,,,0.00,weatherlink.com 1.10,2013-02-02 03:16:00,
2013-02-01 22:31:00,11.7,4.0,30.41,East,92,5.0,11.0,72,0.00,,,0.00,weatherlink.com 1.10,2013-02-02 03:31:00,
2013-02-01 22:46:00,11.7,4.0,30.41,ESE,122,3.0,9.0,72,0.00,,,0.00,weatherlink.com 1.10,2013-02-02 03:46:00,
2013-02-01 23:01:00,11.6,5.0,30.41,ESE,108,4.0,9.0,73,0.00,,,0.00,weatherlink.com 1.10,2013-02-02 04:01:00,
2013-02-01 23:16:00,11.4,4.0,30.41,East,92,2.0,10.0,73,0.00,,,0.00,weatherlink.com 1.10,2013-02-02 04:16:00,
2013-02-01 23:31:00,11.4,4.0,30.41,ESE,114,1.0,11.0,73,0.00,,,0.00,weatherlink.com 1.10,2013-02-02 04:31:00,
2013-02-01 23:46:00,10.9,4.0,30.40,SE,139,2.0,8.0,74,0.00,,,0.00,weatherlink.com 1.10,2013-02-02 04:46:00,